Weather in Migulinskaya

Russia / Rostov Oblast     49°41′39″N   41°15′51″E
В апреле 2022 года жителям России запретили посещать сайт meteo.paraplan.net по решению Генеральной прокуратуры. Аудитория сайта уменьшилась в 10 раз. Владельцы сайта не видят смысла в поддержке погодного сервера в таких условиях. Сайт будет закрыт в октябре.
temp.,
°C
wind,
m/s
gust,
m/s
humid.,
%
clouds,
%
prec.,
mm/h
press.,
hPa
HPBL,
m
5 october, wed
wed500:00+12sw37855 0.0 1017151
03:00+10w38780 0.0 1019179
06:00+8wsw37800 0.0 1020165
09:00+12wsw596195 0.0 1021595
12:00+16sw710461 0.0 10211521
15:00+16wsw7944100 0.0 10212110
18:00+13wsw375596 0.0 1022401
21:00+11wsw4868100 0.1 1022264
6 october, thu
thu600:00+9w48795 0.0 1023322
03:00+7w49856 0.0 1024313
06:00+6w38935 0.0 1024238
09:00+10wnw46725 0.0 1025544
12:00+14wnw565040 0.0 10241389
15:00+14wnw575697 0.0 10241505
18:00+13wsw2563100 0.0 1024155
21:00+13sw3565100 0.0 1024122
7 october, fri
fri700:00+11w377542 0.0 1024148
03:00+10wsw36805 0.0 1024113
06:00+9wsw37825 0.0 1024129
09:00+13w57645 0.0 1023413
12:00+18wnw57525 0.0 1023996
15:00+19nw56507 0.0 10221168
18:00+15nnw35739 0.0 102467
21:00+12n35825 0.0 102589
8 october, sat
sat800:00+10nne35850 0.0 102797
03:00+9ne22880 0.0 102721
06:00+8ene22900 0.0 102723
09:00+12e34714 0.0 1028350
12:00+17ese34475 0.0 1026863
15:00+18e34381 0.0 10251143
18:00+14e34500 0.0 102557
21:00+12ese36570 0.0 102494
9 october, sun
sun900:00+10ese33655 0.0 102432
03:00+10ese32715 0.0 102433
06:00+9ese347923 0.0 102356
09:00+14se586119 0.0 1023379
12:00+19se684360 0.0 10201211
15:00+19se6739100 0.0 10191407
18:00+16se2249100 0.0 101814
21:00+14ese225496 0.0 101811